DW4657 Weather Reports


Display with metric or nautical units.
time (UTC)temp
F
wind
direction
speed
MPH
gust
MPH
rain 1hr
in
rain 24hr
in
rain mn
in
humidity
%
barometer
mb
20260902030044 61 0 0.0 0.0 0.00 0.05 0.05 95 1018.9
20260902025520 61 0 0.0 0.0 0.00 0.05 0.05 95 1018.9
20260902025021 61 0 0.0 0.0 0.00 0.05 0.05 95 1019.2
20260902024544 60 0 0.0 0.0 0.00 0.05 0.05 95 1019.1
20260902024025 60 0 0.0 0.0 0.00 0.05 0.05 95 1019.1
20260902023524 60 0 0.0 0.0 0.00 0.05 0.05 95 1019.0
20260902023049 61 0 0.0 0.0 0.00 0.05 0.05 95 1018.9
20260902022524 60 0 0.0 0.0 0.00 0.05 0.05 95 1019.0
20260902022023 61 0 0.0 0.0 0.00 0.05 0.05 94 1018.9
20260902021543 61 0 0.0 0.0 0.00 0.05 0.05 94 1018.8
20260902021026 61 0 0.0 0.0 0.00 0.05 0.05 94 1018.7
20260902020519 61 0 0.0 0.0 0.00 0.05 0.05 95 1018.9
20260902020052 61 0 0.0 0.0 0.00 0.05 0.05 95 1018.9
20260902015523 61 0 0.0 0.0 0.00 0.05 0.05 94 1018.9
20260902015024 61 0 0.0 0.0 0.00 0.05 0.05 94 1019.0
20260902014545 61 0 0.0 0.0 0.00 0.05 0.05 94 1019.0
20260902014025 61 0 0.0 0.0 0.00 0.05 0.05 94 1018.9
20260902013523 61 0 0.0 0.0 0.00 0.05 0.05 94 1018.8
20260902013044 61 0 0.0 0.0 0.00 0.05 0.05 94 1018.5
20260902012525 61 0 0.0 0.0 0.00 0.05 0.05 94 1018.5
20260902012024 61 0 0.0 0.0 0.00 0.05 0.05 94 1018.6
20260902011543 61 0 0.0 0.0 0.00 0.05 0.05 94 1018.7
20260902011021 61 0 0.0 0.0 0.00 0.05 0.05 94 1018.7
20260902010522 61 0 0.0 0.0 0.00 0.05 0.05 94 1018.8
20260902010040 61 0 0.0 0.0 0.00 0.05 0.05 94 1018.9
20260902005525 61 0 0.0 0.0 0.00 0.05 0.05 94 1018.8
20260902005024 62 0 0.0 0.0 0.00 0.05 0.05 94 1018.6
20260902004546 62 0 0.0 0.0 0.00 0.05 0.05 94 1018.5
20260902004026 62 0 0.0 0.0 0.00 0.05 0.05 94 1018.5
20260902003524 61 0 0.0 0.0 0.00 0.05 0.05 94 1018.5
20260902003046 62 0 0.0 0.0 0.00 0.05 0.05 93 1018.6
20260902002520 62 0 0.0 0.0 0.00 0.05 0.05 93 1018.6
20260902002022 62 0 0.0 0.0 0.00 0.05 0.05 93 1018.5
20260902001552 62 0 0.0 0.0 0.00 0.05 0.05 93 1018.6
20260902001024 62 0 0.0 0.0 0.00 0.05 0.05 93 1018.6
20260902000526 62 0 0.0 0.0 0.00 0.05 0.05 93 1018.6
20260902000046 62 0 0.0 0.0 0.00 0.05 0.05 93 1018.6
20260901235525 62 0 0.0 0.0 0.00 0.05 0.05 93 1018.4
20260901235026 62 0 0.0 0.0 0.00 0.05 0.05 93 1018.4
20260901234548 62 0 0.0 1.0 0.00 0.05 0.05 93 1018.2
20260901234025 62 118 0.0 1.0 0.00 0.05 0.05 93 1018.1
20260901233519 62 0 0.0 0.0 0.00 0.05 0.05 93 1018.2
20260901233056 62 0 0.0 0.0 0.00 0.05 0.05 93 1018.2
20260901232524 62 0 0.0 0.0 0.00 0.05 0.05 93 1018.2
20260901232026 62 0 0.0 0.0 0.00 0.05 0.05 93 1018.2
20260901231549 62 0 0.0 0.0 0.00 0.05 0.05 93 1018.2
20260901231024 62 0 0.0 0.0 0.00 0.05 0.05 93 1018.2
20260901230526 62 0 0.0 0.0 0.00 0.05 0.05 93 1018.1
20260901230045 62 0 0.0 1.0 0.00 0.05 0.05 93 1018.0
20260901225524 62 0 0.0 1.0 0.00 0.05 0.05 93 1017.9
20260901225027 62 0 0.0 0.0 0.00 0.05 0.05 93 1018.0
20260901224542 62 0 0.0 1.0 0.00 0.05 0.05 93 1018.1
20260901224021 62 0 0.0 1.0 0.00 0.05 0.05 93 1017.9
20260901223523 62 0 0.0 2.0 0.00 0.05 0.05 92 1017.8
20260901223047 62 0 0.0 2.0 0.00 0.05 0.05 92 1017.9
20260901222525 62 128 0.0 3.0 0.00 0.05 0.05 92 1018.1
20260901222025 62 108 1.0 3.0 0.00 0.05 0.05 92 1018.1
20260901221543 62 108 0.0 2.0 0.00 0.05 0.05 92 1018.2
20260901221024 62 0 0.0 3.0 0.00 0.05 0.05 92 1018.3
20260901220525 62 118 2.0 3.0 0.00 0.05 0.05 92 1018.3
20260901220107 62 134 0.0 2.0 0.00 0.05 0.05 92 1018.4
20260901215525 62 124 0.0 2.0 0.00 0.05 0.05 92 1018.5
20260901215026 62 86 1.0 2.0 0.00 0.05 0.05 91 1018.4
20260901214545 62 0 1.0 2.0 0.00 0.05 0.05 91 1018.5
20260901214024 62 83 0.0 5.0 0.00 0.05 0.05 91 1018.3
20260901213527 62 109 2.0 5.0 0.00 0.05 0.05 91 1018.3
20260901213046 62 128 1.0 2.0 0.00 0.05 0.05 91 1018.4
20260901212525 62 104 1.0 2.0 0.00 0.05 0.05 91 1018.4
20260901212025 62 0 0.0 4.0 0.00 0.05 0.05 91 1018.4
20260901211543 62 225 1.0 4.0 0.00 0.05 0.05 91 1018.3
20260901211023 62 127 0.0 2.0 0.00 0.05 0.05 91 1018.2
20260901210525 62 105 0.0 2.0 0.00 0.05 0.05 91 1018.2
20260901210046 62 0 0.0 2.0 0.00 0.05 0.05 90 1018.0
20260901205530 62 0 0.0 2.0 0.01 0.05 0.05 90 1017.9
20260901205025 62 0 0.0 2.0 0.01 0.05 0.05 90 1017.9
20260901204544 62 0 0.0 1.0 0.01 0.05 0.05 91 1017.9
20260901204026 62 170 0.0 3.0 0.01 0.05 0.05 90 1017.7
20260901203524 62 0 1.0 3.0 0.01 0.05 0.05 90 1017.7
20260901203047 62 0 0.0 4.0 0.01 0.05 0.05 91 1017.5
20260901202523 62 247 1.0 4.0 0.01 0.05 0.05 90 1017.6
20260901202151 63 136 1.0 4.0 0.01 0.05 0.05 91 1017.6
20260901202055 63 136 1.0 4.0 0.01 0.05 0.05 91 1017.6
20260901201542 63 113 1.0 4.0 0.01 0.05 0.05 90 1017.5
20260901201023 63 148 1.0 4.0 0.01 0.05 0.05 90 1017.6
20260901200525 63 142 0.0 3.0 0.01 0.05 0.05 90 1017.4
20260901200050 63 0 0.0 3.0 0.01 0.05 0.05 91 1017.5
20260901195524 63 125 0.0 2.0 0.00 0.04 0.04 91 1017.6
20260901195026 63 0 0.0 3.0 0.00 0.04 0.04 91 1017.6
20260901194553 63 143 0.0 3.0 0.00 0.04 0.04 91 1017.7
20260901194024 63 191 1.0 3.0 0.00 0.04 0.04 90 1017.6
20260901193523 63 0 0.0 2.0 0.00 0.04 0.04 91 1017.5
20260901193046 63 116 0.0 2.0 0.00 0.04 0.04 90 1017.6
20260901192524 63 0 0.0 2.0 0.00 0.04 0.04 90 1017.6
20260901192026 63 0 0.0 3.0 0.00 0.04 0.04 90 1017.5
20260901191544 63 164 0.0 4.0 0.01 0.04 0.04 90 1017.5
20260901191027 63 160 2.0 4.0 0.01 0.04 0.04 90 1017.5
20260901190523 63 130 0.0 5.0 0.02 0.04 0.04 90 1017.5
20260901190043 63 120 1.0 5.0 0.03 0.04 0.04 90 1017.4
20260901185525 63 108 1.0 4.0 0.04 0.04 0.04 90 1017.4
20260901185026 63 81 1.0 5.0 0.04 0.04 0.04 90 1017.4
20260901184543 63 194 1.0 5.0 0.04 0.04 0.04 90 1017.4
20260901184024 64 78 1.0 4.0 0.04 0.04 0.04 90 1017.4
20260901183524 64 165 0.0 3.0 0.04 0.04 0.04 90 1017.3
20260901183045 64 73 1.0 3.0 0.04 0.04 0.04 89 1017.4
20260901182524 64 233 1.0 3.0 0.04 0.04 0.04 89 1017.5
20260901182025 64 68 0.0 4.0 0.04 0.04 0.04 88 1017.6
20260901181545 64 130 1.0 4.0 0.03 0.03 0.03 87 1017.4
20260901181023 64 90 1.0 3.0 0.03 0.03 0.03 87 1017.4
20260901180524 65 0 0.0 3.0 0.02 0.02 0.02 86 1017.2
20260901180043 65 0 1.0 3.0 0.01 0.01 0.01 85 1017.1
20260901175518 65 131 0.0 6.0 0.00 0.00 0.00 84 1017.0
20260901175023 66 136 2.0 6.0 0.00 0.00 0.00 83 1017.0
20260901174541 66 169 1.0 8.0 0.00 0.00 0.00 82 1017.1
20260901174024 67 232 1.0 8.0 0.00 0.00 0.00 82 1017.2
20260901173524 67 154 1.0 5.0 0.00 0.00 0.00 81 1017.2
20260901173044 68 198 1.0 5.0 0.00 0.00 0.00 82 1017.2
20260901172525 68 193 2.0 8.0 0.00 0.00 0.00 81 1017.1
20260901172024 69 247 2.0 8.0 0.00 0.00 0.00 81 1017.0
20260901171548 69 174 1.0 6.0 0.00 0.00 0.00 81 1017.0
20260901171018 69 213 2.0 6.0 0.00 0.00 0.00 79 1017.1
20260901170519 69 166 2.0 4.0 0.00 0.00 0.00 79 1017.1
20260901165525 69 96 2.0 7.0 0.00 0.00 0.00 78 1017.1
20260901165025 69 119 2.0 7.0 0.00 0.00 0.00 79 1017.0
20260901164549 70 218 2.0 5.0 0.00 0.00 0.00 80 1016.9
20260901164024 70 188 2.0 5.0 0.00 0.00 0.00 80 1017.0
20260901163524 70 107 3.0 5.0 0.00 0.00 0.00 79 1016.7
20260901163043 70 165 1.0 8.0 0.00 0.00 0.00 81 1016.7
20260901162527 70 149 3.0 8.0 0.00 0.00 0.00 80 1016.7
20260901162024 71 188 1.0 6.0 0.00 0.00 0.00 82 1016.8
20260901161541 71 106 2.0 7.0 0.00 0.00 0.00 82 1016.8
20260901161022 71 80 3.0 7.0 0.00 0.00 0.00 81 1016.8
20260901160522 71 146 1.0 6.0 0.00 0.00 0.00 83 1016.8
20260901160051 71 185 2.0 6.0 0.00 0.00 0.00 83 1016.7
20260901155523 71 136 2.0 9.0 0.00 0.00 0.00 84 1016.7
20260901155025 71 121 4.0 9.0 0.00 0.00 0.00 83 1016.7
20260901154542 71 139 2.0 6.0 0.00 0.00 0.00 83 1016.7
20260901154024 71 105 3.0 5.0 0.00 0.00 0.00 82 1016.9
20260901153524 71 151 2.0 5.0 0.00 0.00 0.00 82 1017.0
20260901153045 71 73 1.0 5.0 0.00 0.00 0.00 82 1017.0
20260901152525 71 114 2.0 5.0 0.00 0.00 0.00 82 1017.1
20260901152028 71 104 2.0 5.0 0.00 0.00 0.00 82 1017.3
20260901151546 71 79 2.0 5.0 0.00 0.00 0.00 82 1017.3
20260901151025 71 138 2.0 5.0 0.00 0.00 0.00 81 1017.2
20260901150525 71 210 1.0 5.0 0.00 0.00 0.00 85 1017.1
20260901150058 70 134 3.0 5.0 0.00 0.00 0.00 86 1017.3
20260901145519 70 110 1.0 5.0 0.00 0.00 0.00 87 1017.4
20260901145026 70 106 1.0 5.0 0.00 0.00 0.00 88 1017.4
20260901144548 69 85 1.0 5.0 0.00 0.00 0.00 88 1017.4
20260901144025 69 96 2.0 7.0 0.00 0.00 0.00 89 1017.5
20260901143526 69 70 3.0 7.0 0.00 0.00 0.00 90 1017.3
20260901143047 69 118 2.0 5.0 0.00 0.00 0.00 91 1017.4
20260901142524 68 63 1.0 3.0 0.00 0.00 0.00 91 1017.6
20260901142025 68 0 0.0 2.0 0.00 0.00 0.00 92 1017.6
20260901141543 67 0 0.0 3.0 0.00 0.00 0.00 92 1017.7
20260901141022 67 109 1.0 3.0 0.00 0.00 0.00 92 1017.6
20260901140522 67 84 0.0 1.0 0.00 0.00 0.00 92 1017.7
20260901140042 67 0 0.0 0.0 0.00 0.00 0.00 92 1017.9
20260901135524 67 0 0.0 0.0 0.00 0.00 0.00 92 1017.8
20260901135023 67 0 0.0 1.0 0.00 0.00 0.00 92 1017.7
20260901134546 67 0 0.0 1.0 0.00 0.00 0.00 92 1017.8
20260901134023 67 0 0.0 0.0 0.00 0.00 0.00 92 1017.9
20260901133528 66 0 0.0 0.0 0.00 0.00 0.00 91 1017.8
20260901133043 66 0 0.0 0.0 0.00 0.00 0.00 91 1017.7
20260901132524 66 0 0.0 0.0 0.00 0.00 0.00 91 1017.5
20260901132024 66 0 0.0 0.0 0.00 0.00 0.00 91 1017.6
20260901131547 66 0 0.0 0.0 0.00 0.00 0.00 91 1017.7
20260901131026 66 0 0.0 0.0 0.00 0.00 0.00 91 1017.8
20260901130523 66 0 0.0 0.0 0.00 0.00 0.00 91 1017.8
20260901130043 66 0 0.0 0.0 0.00 0.00 0.00 91 1017.7
20260901125523 66 0 0.0 0.0 0.00 0.00 0.00 91 1017.6
20260901125025 66 0 0.0 0.0 0.00 0.00 0.00 91 1017.7
20260901124546 66 0 0.0 0.0 0.00 0.00 0.00 91 1017.6
20260901124024 66 0 0.0 0.0 0.00 0.00 0.00 91 1017.6
20260901123524 66 0 0.0 0.0 0.00 0.00 0.00 91 1017.7
20260901123044 66 0 0.0 0.0 0.00 0.00 0.00 91 1017.6
20260901122522 66 0 0.0 0.0 0.00 0.00 0.00 91 1017.8
20260901122022 66 0 0.0 0.0 0.00 0.00 0.00 91 1017.7
20260901121549 66 0 0.0 0.0 0.00 0.00 0.00 91 1017.7
20260901121024 66 0 0.0 0.0 0.00 0.00 0.00 91 1017.7
20260901120525 66 0 0.0 0.0 0.00 0.00 0.00 91 1017.5
20260901120046 66 0 0.0 0.0 0.00 0.00 0.00 91 1017.5
20260901115524 65 0 0.0 0.0 0.00 0.00 0.00 91 1017.5
20260901115024 65 0 0.0 0.0 0.00 0.00 0.00 91 1017.4
20260901114544 65 0 0.0 0.0 0.00 0.00 0.00 92 1017.5
20260901114023 65 0 0.0 0.0 0.00 0.00 0.00 92 1017.4
20260901113525 65 0 0.0 0.0 0.00 0.00 0.00 92 1017.4
20260901113054 65 0 0.0 0.0 0.00 0.00 0.00 93 1017.4
20260901112522 65 0 0.0 0.0 0.00 0.00 0.00 93 1017.5
20260901112028 65 0 0.0 0.0 0.00 0.00 0.00 93 1017.4
20260901111544 65 0 0.0 0.0 0.00 0.00 0.00 93 1017.3
20260901111024 65 0 0.0 0.0 0.00 0.00 0.00 93 1017.3
20260901110523 64 0 0.0 0.0 0.00 0.00 0.00 93 1017.3
20260901110046 64 0 0.0 0.0 0.00 0.00 0.00 93 1017.4
20260901105524 64 0 0.0 0.0 0.00 0.00 0.00 93 1017.3
20260901105026 64 0 0.0 0.0 0.00 0.00 0.00 93 1017.2
20260901104553 64 0 0.0 0.0 0.00 0.00 0.00 93 1017.1
20260901104024 64 0 0.0 0.0 0.00 0.00 0.00 93 1017.0
20260901103522 64 0 0.0 0.0 0.00 0.00 0.00 93 1017.0
20260901103042 64 0 0.0 0.0 0.00 0.00 0.00 93 1017.0
20260901102525 64 0 0.0 0.0 0.00 0.00 0.00 93 1016.9
20260901102024 64 0 0.0 0.0 0.00 0.00 0.00 92 1016.8
20260901101541 64 0 0.0 0.0 0.00 0.00 0.00 92 1016.8
20260901101025 64 0 0.0 0.0 0.00 0.00 0.00 92 1016.7
20260901100524 64 0 0.0 0.0 0.00 0.00 0.00 92 1016.7
20260901100051 64 0 0.0 0.0 0.00 0.00 0.00 92 1016.7
20260901095523 64 0 0.0 0.0 0.00 0.00 0.00 92 1016.7
20260901095024 64 0 0.0 0.0 0.00 0.00 0.00 92 1016.7
20260901094542 64 0 0.0 0.0 0.00 0.00 0.00 92 1016.7
20260901094022 64 0 0.0 0.0 0.00 0.00 0.00 92 1016.8
20260901093522 64 0 0.0 0.0 0.00 0.00 0.00 92 1016.8
20260901093042 64 0 0.0 0.0 0.00 0.00 0.00 92 1016.7
20260901092524 64 0 0.0 0.0 0.00 0.00 0.00 91 1016.7
20260901092024 64 0 0.0 0.0 0.00 0.00 0.00 91 1016.8
20260901091547 64 0 0.0 0.0 0.00 0.00 0.00 91 1016.6
20260901091023 64 0 0.0 0.0 0.00 0.00 0.00 91 1016.6
20260901090525 64 0 0.0 0.0 0.00 0.00 0.00 91 1016.8
20260901090046 64 0 0.0 0.0 0.00 0.00 0.00 91 1016.7
20260901085525 64 0 0.0 0.0 0.00 0.00 0.00 91 1016.8
20260901085023 65 0 0.0 0.0 0.00 0.00 0.00 91 1016.9
20260901084554 65 0 0.0 0.0 0.00 0.00 0.00 91 1016.9
20260901084024 64 0 0.0 0.0 0.00 0.00 0.00 91 1016.9
20260901083525 65 0 0.0 0.0 0.00 0.00 0.00 91 1017.0
20260901083042 65 0 0.0 0.0 0.00 0.00 0.00 91 1017.1
20260901082524 65 0 0.0 0.0 0.00 0.00 0.00 91 1017.4
20260901082024 65 0 0.0 0.0 0.00 0.00 0.00 91 1017.4
20260901081544 65 0 0.0 0.0 0.00 0.00 0.00 91 1017.4
20260901081026 65 0 0.0 0.0 0.00 0.00 0.00 91 1017.4
20260901080525 65 0 0.0 0.0 0.00 0.00 0.00 91 1017.4
20260901080052 65 0 0.0 0.0 0.00 0.00 0.00 90 1017.5
20260901075525 65 0 0.0 0.0 0.00 0.00 0.00 90 1017.5
20260901075024 65 0 0.0 0.0 0.00 0.00 0.00 90 1017.4
20260901074554 65 0 0.0 0.0 0.00 0.00 0.00 90 1017.4
20260901074027 65 0 0.0 0.0 0.00 0.00 0.00 90 1017.5
20260901073518 65 0 0.0 0.0 0.00 0.00 0.00 90 1017.5
20260901073042 65 0 0.0 0.0 0.00 0.00 0.00 90 1017.5
20260901072523 65 0 0.0 0.0 0.00 0.00 0.00 90 1017.5
20260901072024 65 0 0.0 0.0 0.00 0.00 0.00 90 1017.5
20260901071548 65 0 0.0 0.0 0.00 0.00 0.00 90 1017.6
20260901071024 65 0 0.0 0.0 0.00 0.00 0.00 90 1017.7
20260901070525 65 0 0.0 0.0 0.00 0.00 0.00 90 1017.7
20260901070044 65 0 0.0 0.0 0.00 0.00 0.00 90 1017.7
20260901065519 65 0 0.0 0.0 0.00 0.00 0.00 90 1017.7
20260901065027 65 0 0.0 0.0 0.00 0.00 0.00 90 1017.8
20260901064549 65 0 0.0 0.0 0.00 0.00 0.00 90 1017.8
20260901064025 65 173 0.0 0.0 0.00 0.00 0.00 90 1017.7
20260901063523 65 0 0.0 0.0 0.00 0.00 0.00 90 1017.8
20260901063105 65 0 0.0 0.0 0.00 0.00 0.00 90 1017.8
20260901062524 65 196 0.0 0.0 0.00 0.00 0.00 90 1017.7
20260901062025 65 0 0.0 0.0 0.00 0.00 0.00 90 1017.9
20260901061548 65 0 0.0 0.0 0.00 0.00 0.00 90 1017.7
20260901061024 65 0 0.0 0.0 0.00 0.00 0.00 90 1017.8
20260901060525 65 0 0.0 0.0 0.00 0.00 0.00 90 1017.7
20260901060044 65 0 0.0 0.0 0.00 0.00 0.00 90 1017.8
20260901055523 65 0 0.0 0.0 0.00 0.00 0.00 89 1017.7
20260901055028 65 202 0.0 1.0 0.00 0.00 0.00 90 1017.7
20260901054545 65 0 0.0 1.0 0.00 0.00 0.00 90 1017.7
20260901054030 65 0 0.0 0.0 0.00 0.00 0.00 89 1017.7
20260901053525 65 0 0.0 1.0 0.00 0.00 0.00 90 1017.8
20260901053052 65 0 0.0 1.0 0.00 0.00 0.00 89 1017.9
20260901052528 65 0 0.0 0.0 0.00 0.00 0.00 89 1018.0
20260901052021 65 0 0.0 0.0 0.00 0.00 0.00 89 1018.0
20260901051544 65 0 0.0 0.0 0.00 0.00 0.00 89 1018.1
20260901051025 65 0 0.0 0.0 0.00 0.00 0.00 88 1018.1
20260901050525 65 0 0.0 0.0 0.00 0.00 0.00 88 1018.0
20260901050048 65 0 0.0 0.0 0.00 0.00 0.00 88 1017.9
20260901045524 65 0 0.0 0.0 0.00 0.01 0.00 88 1017.9
20260901045024 65 0 0.0 0.0 0.00 0.01 0.00 88 1017.9
20260901044546 65 0 0.0 1.0 0.00 0.01 0.00 88 1018.1
20260901044025 65 0 0.0 2.0 0.00 0.01 0.00 88 1018.1
20260901043524 65 0 0.0 2.0 0.00 0.01 0.00 88 1017.9
20260901043052 65 229 0.0 2.0 0.00 0.01 0.00 88 1018.0
20260901042530 65 0 0.0 2.0 0.00 0.01 0.00 88 1018.1
20260901042025 65 0 0.0 0.0 0.00 0.01 0.00 88 1018.1
20260901041541 65 0 0.0 0.0 0.00 0.01 0.00 88 1018.3
20260901041025 65 0 0.0 0.0 0.00 0.01 0.00 88 1018.1
20260901040525 65 162 0.0 0.0 0.00 0.01 0.00 87 1018.2
20260901040048 66 0 0.0 2.0 0.00 0.01 0.00 88 1018.2
20260901035525 65 0 0.0 2.0 0.00 0.25 0.01 87 1018.2
20260901035027 66 0 0.0 0.0 0.00 0.25 0.01 87 1018.1
20260901034542 66 0 0.0 1.0 0.00 0.25 0.01 87 1018.2
20260901034025 66 0 0.0 1.0 0.00 0.25 0.01 87 1018.2
20260901033525 66 0 0.0 1.0 0.00 0.25 0.01 87 1018.1
20260901033106 66 124 0.0 1.0 0.00 0.25 0.01 87 1018.1
20260901032525 66 0 0.0 2.0 0.00 0.25 0.01 87 1018.1
20260901032025 66 0 0.0 2.0 0.00 0.25 0.01 87 1018.3
20260901031543 66 0 0.0 1.0 0.00 0.25 0.01 87 1018.3
20260901031025 66 0 0.0 1.0 0.00 0.25 0.01 86 1018.3
20260901030521 66 103 0.0 2.0 0.00 0.25 0.01 87 1018.3